GW1109 Weather Reports


time (UTC)temp
C
wind
direction
speed
KPH
gust
KPH
rain 1hr
cm
rain 24hr
cm
rain mn
cm
humidity
%
barometer
mb
20260505093048 11 182 6.4 14.5 0.00 0.00 0.00 66 1008.1
20260505091555 11 204 4.8 12.9 0.00 0.00 0.00 65 1008.1
20260505090052 11 198 3.2 14.5 0.00 0.00 0.00 65 1008.2
20260505084541 11 216 4.8 11.3 0.00 0.00 0.00 64 1008.3
20260505083052 11 215 4.8 12.9 0.00 0.00 0.00 64 1008.4
20260505081558 11 210 4.8 12.9 0.00 0.00 0.00 64 1008.4
20260505080049 11 220 6.4 14.5 0.00 0.00 0.00 63 1008.6
20260505074604 11 223 8.0 16.1 0.00 0.00 0.00 62 1008.5
20260505073052 11 208 11.3 19.3 0.00 0.00 0.00 61 1008.6
20260505071547 11 227 11.3 24.1 0.00 0.00 0.00 60 1008.6
20260505070047 12 221 12.9 22.5 0.00 0.00 0.00 59 1008.5
20260505064547 12 227 9.7 22.5 0.00 0.00 0.00 59 1008.5
20260505063045 12 247 9.7 20.9 0.00 0.00 0.00 58 1008.6
20260505061606 12 240 11.3 22.5 0.00 0.00 0.00 57 1008.7
20260505060046 12 202 11.3 22.5 0.00 0.00 0.00 57 1008.6
20260505054604 12 209 12.9 22.5 0.00 0.00 0.00 55 1008.6
20260505053049 12 180 12.9 25.7 0.00 0.00 0.00 55 1008.7
20260505051547 12 220 9.7 20.9 0.00 0.00 0.00 55 1008.7
20260505041541 13 232 11.3 24.1 0.00 0.00 0.00 51 1008.6
20260505040050 14 206 14.5 22.5 0.00 0.00 0.00 50 1008.5
20260505034545 14 207 9.7 27.4 0.00 0.00 0.00 49 1008.2
20260505033048 15 257 11.3 19.3 0.00 0.00 0.00 48 1008.2
20260505031541 15 211 9.7 27.4 0.00 0.00 0.00 48 1008.2
20260505030048 15 224 12.9 30.6 0.00 0.00 0.00 47 1008.1
20260505024605 15 225 11.3 27.4 0.00 0.00 0.00 46 1008.0
20260505023049 15 206 12.9 32.2 0.00 0.00 0.00 45 1007.9
20260505021602 15 225 8.0 19.3 0.00 0.00 0.00 41 1007.9
20260505020047 15 205 6.4 14.5 0.00 0.00 0.00 41 1007.7
20260505014545 15 229 6.4 12.9 0.00 0.00 0.00 40 1007.4
20260505013040 15 219 3.2 9.7 0.00 0.00 0.00 41 1007.2
20260505011554 15 224 4.8 11.3 0.00 0.00 0.00 40 1007.1
20260505010048 15 238 3.2 8.0 0.00 0.00 0.00 40 1006.9
20260505004546 16 209 4.8 8.0 0.00 0.00 0.00 38 1006.6
20260505003040 16 200 3.2 9.7 0.00 0.00 0.00 36 1006.5
20260505001541 16 187 1.6 6.4 0.00 0.00 0.00 37 1006.3
20260505000049 16 229 1.6 4.8 0.00 0.00 0.00 36 1006.1
20260504234547 17 248 1.6 6.4 0.00 0.00 0.00 34 1005.9
20260504233055 18 249 3.2 9.7 0.00 0.00 0.00 33 1005.9
20260504231541 18 0 3.2 19.3 0.00 0.00 0.00 32 1005.7
20260504230047 19 215 8.0 16.1 0.00 0.00 0.00 29 1005.3
20260504224546 19 246 8.0 14.5 0.00 0.00 0.00 30 1005.3
20260504223049 19 212 8.0 19.3 0.00 0.00 0.00 30 1005.2
20260504221547 19 269 12.9 27.4 0.00 0.00 0.00 28 1005.1
20260504220104 20 269 16.1 29.0 0.00 0.00 0.00 27 1005.1
20260504214547 20 282 12.9 25.7 0.00 0.00 0.00 27 1005.1
20260504213050 20 306 11.3 27.4 0.00 0.00 0.00 30 1005.0
20260504211541 20 271 16.1 30.6 0.00 0.00 0.00 27 1005.0
20260504210049 20 273 16.1 32.2 0.00 0.00 0.00 27 1004.9
20260504204557 20 281 9.7 25.7 0.00 0.00 0.00 31 1004.8
20260504203046 20 266 12.9 27.4 0.00 0.00 0.00 30 1004.7
20260504201551 19 256 14.5 33.8 0.00 0.00 0.00 29 1004.7
20260504200053 19 241 16.1 29.0 0.00 0.00 0.00 30 1004.7
20260504194549 20 306 12.9 29.0 0.00 0.00 0.00 31 1004.9
20260504193047 20 286 12.9 32.2 0.00 0.00 0.00 27 1004.9
20260504191545 20 268 8.0 30.6 0.00 0.00 0.00 36 1005.0
20260504190044 18 315 14.5 30.6 0.00 0.00 0.00 31 1005.1
20260504184540 18 281 17.7 33.8 0.00 0.00 0.00 30 1005.1
20260504183040 19 279 16.1 41.8 0.00 0.00 0.00 29 1005.1
20260504181552 19 252 20.9 41.8 0.00 0.00 0.00 27 1005.0
20260504180050 20 239 12.9 38.6 0.00 0.00 0.00 30 1004.9
20260504174546 18 263 19.3 40.2 0.00 0.00 0.00 30 1005.0
20260504173050 18 252 19.3 40.2 0.00 0.00 0.00 30 1005.2
20260504171548 18 309 24.1 37.0 0.00 0.00 0.00 28 1005.1